Home > Weather > Canvey Island > Past weeks

Flag for United Kingdom Weather for the Past 2 Weeks in Canvey Island, England, United Kingdom

Now
32 °F

Clear.


Feels Like: 32 °F
Forecast: 32 / 44 °F
Wind: No wind

Location: Southend Airport-On-Sea

Current Time: Feb 11, 2016 at 7:28:26 AM

Latest Report: Feb 11, 2016 at 6:50 AM


Visibility: 10 mi

Pressure: 29.65 "Hg

Humidity: 87%

Dew point: 28 °F

Location of Canvey IslandLocation

Historic Weather in Canvey Island — Graph

°F

Canvey Island Temperature Yesterday

Maximum temperature yesterday: 46 °F (at 1:20 PM)
Minimum temperature yesterday: 36 °F (at 11:50 PM)
Average temperature yesterday: 42 °F

High & Low Weather Summary for the Past Weeks

 TemperatureHumidityPressure
High57 °F (Jan 27, 11:50 AM)94% (Jan 31, 12:20 PM)30.36 "Hg (Jan 31, 12:20 PM)
Low30 °F (Feb 11, 3:50 AM)44% (Feb 2, 2:50 PM)29.03 "Hg (Feb 8, 12:20 PM)
Average47 °F74%29.75 "Hg
* Reported Jan 27 6:20 AM — Feb 11 6:20 AM, Canvey Island, Weather by CustomWeather, © 2016

Note: Actual official high and low records may vary slightly from our data, if they occured in-between our weather recording intervals... More about our weather records

Advertising

Canvey Island Weather History for the Previous 24 Hours

 ConditionsComfort  
Time TempWeatherWind HumidityBarometerVisibility
6:20 AM
Thu, Feb 11
30 °FClear.3 mph93%29.65 "Hg10 mi
5:50 AM32 °FClear.3 mph87%29.65 "Hg10 mi
5:20 AM32 °FClear.3 mph93%29.65 "Hg10 mi
4:50 AM30 °FClear.6 mph93%29.65 "Hg10 mi
4:20 AM30 °FClear.5 mph86%29.65 "Hg10 mi
3:50 AM30 °FClear.3 mph86%29.65 "Hg10 mi
2:50 AM34 °FClear.5 mph87%29.65 "Hg10 mi
1:50 AM36 °FClear.6 mph75%29.65 "Hg10 mi
12:50 AM36 °FClear.7 mph75%29.62 "Hg10 mi
11:50 PM
Wed, Feb 10
36 °FClear.5 mph75%29.62 "Hg10 mi
11:20 PM37 °FClear.5 mph70%29.62 "Hg10 mi
10:50 PM37 °FClear.6 mph70%29.62 "Hg10 mi
10:20 PM39 °FClear.7 mph75%29.62 "Hg10 mi
9:50 PM37 °FClear.7 mph70%29.59 "Hg10 mi
9:20 PM39 °FClear.7 mph70%29.59 "Hg10 mi
8:20 PM39 °FClear.7 mph65%29.59 "Hg10 mi
7:50 PM39 °FClear.8 mph75%29.56 "Hg10 mi
7:20 PM41 °FClear.8 mph70%29.56 "Hg10 mi
6:50 PM41 °FClear.8 mph70%29.56 "Hg10 mi
6:20 PM41 °FPassing clouds.8 mph76%29.53 "HgN/A
5:50 PM41 °FPassing clouds.6 mph76%29.53 "HgN/A
5:20 PM43 °FPassing clouds.7 mph66%29.50 "HgN/A
4:50 PM45 °FPassing clouds.8 mph66%29.50 "HgN/A
4:20 PM43 °FPassing clouds.7 mph71%29.50 "HgN/A
3:50 PM46 °FPassing clouds.8 mph66%29.47 "HgN/A
3:20 PM46 °FPassing clouds.8 mph66%29.47 "HgN/A
2:50 PM46 °FPassing clouds.10 mph66%29.47 "HgN/A
2:20 PM46 °FPassing clouds.8 mph66%29.45 "HgN/A
1:50 PM45 °FPartly sunny.9 mph71%29.45 "HgN/A
1:20 PM46 °FScattered clouds.10 mph66%29.45 "HgN/A
12:50 PM45 °FScattered clouds.10 mph71%29.42 "HgN/A
12:20 PM45 °FScattered clouds.10 mph71%29.42 "HgN/A
11:50 AM45 °FScattered clouds.14 mph71%29.42 "HgN/A
11:20 AM45 °FScattered clouds.12 mph76%29.42 "HgN/A
10:50 AM43 °FPassing clouds.14 mph76%29.39 "HgN/A
10:20 AM43 °FPassing clouds.15 mph76%29.39 "HgN/A
9:50 AM43 °FPassing clouds.12 mph76%29.36 "HgN/A
9:20 AM41 °FScattered clouds.13 mph81%29.36 "HgN/A
8:50 AM41 °FPartly sunny.12 mph81%29.36 "HgN/A
8:20 AM41 °FDrizzle. Partly sunny.13 mph81%29.33 "HgN/A
7:50 AM41 °FPartly sunny.13 mph81%29.33 "HgN/A
7:20 AM41 °FPartly cloudy.14 mph81%29.30 "HgN/A
Weather by CustomWeather, © 2016

See weather overviewHow to use our weather pages